Location: Middle Street
(51.7167°N, 0.0333°E)
Time: 23:59:04
(UTC+00:00)

Cosmos 2344 - Pass Details

Date: 20 January 2021
Orbit: 1243 x 2999 km, 63.3° (Epoch: 01 March)

Event Time Altitude Azimuth Distance (km) Brightness Sun altitude
Rises 18:40:20 0° 311° (NW) 4,409 7.0 -20.0°
Reaches altitude 10° 18:42:56 10° 313° (NW) 3,548 6.4 -20.4°
Maximum altitude 18:51:40 72° 39° (NE) 1,815 4.2 -21.7°
Enters shadow 18:59:37 24° 120° (ESE) 3,540 5.4 -23.0°
